Aérodrome :
LOGIN :

S'inscrire | Disclaimer

   EN    FR    IT 

 










Légende :    VFR   VFR Marginal   IFR   IFR Intensif   IFR Très Intensif
Visi : 
Plafond : 
>= 8 km
>= 3000ft
5 à 8 km
1000 à 3000 ft
1500m à 5 km
500 à 1000 ft
800 à 1500m
200 à 500 ft
< 800m
< 200 ft
Symboles :   Orages  Brouillard  Fortes neiges  Fortes précipitations  Vent > 20 kt
SIGMETs :   Divers  Orages  Givrage  Turbulence  Onde Orograph.  Cendres Volcan.







- Altitude de l'aérodrome : 511 ft
- Code IATA : LHA


EDTL - Lahr Schwarzwald

DERNIER METAR :
  • 261150Z 27009KT 9999 SCT024 BKN039 19/13 Q1013

METARs EXPIRÉS :
  • 261120Z 24008KT 210V270 9999 FEW018 BKN028 17/13 Q1013
  • 261050Z 25009KT 9999 FEW015 BKN025 17/13 Q1013
  • 261020Z 25012KT 9999 BKN028 16/13 Q1013
  • 260950Z 24008KT 9999 BKN028 16/14 Q1013
  • 260920Z 22010KT 200V260 9999 FEW010 SCT020 BKN040 16/14 Q1013

TAF TAF EDTL
Valide du 26 à 12h jusqu'au 26 à 21h UTC


261100Z 2612/2621 24008KT 9999 BKN035
BECMG 2617/2620 20003KT
Pas de NOTAMs connus pour ce terrain.



MET'MAP, la Météo Aéronautique d'un coup d'oeil ! - Copyright ORBIFLY Décembre 2007 - Disclaimer

ORBIFLY MET'MAP TEAM :

Programmation & Développement : Alexandra Zaïnal
Conception & Développement : Baudouin d'Aumeries
Co-Programmation & Développement : Marc-Olivier Méhu
Soutien technique & logistique : Manuel Goepfert

Contact : metmap@orbifly.com




SOURCES & CREDITS :

   NOAA